Regional Weather Roundup
Issued by NWS

Home | Current Version | Previous Version | Text Only | Print | Product List | Glossary Off
Versions: 1 2 3 4 5 6 7 8 9 10 11 12 13 14 15 16 17 18 19 20 21 22 23 24 25 26 27 28 29 30 31 32 33 34 35 36 37 38 39 40 41 42 43 44 45 46 47 48 49 50

000
ASUS43 KIND 031259
RWRIN

WEATHER ROUNDUP FOR INDIANA
NATIONAL WEATHER SERVICE INDIANAPOLIS IN
900 AM EDT FRI JUL 03 2015

NOTE: "FAIR" INDICATES FEW OR NO CLOUDS BELOW 12,000 FEET WITH NO
SIGNIFICANT WEATHER AND/OR OBSTRUCTIONS TO VISIBILITY.

* - STATION DOES NOT REPORT WEATHER SUCH AS PRECIPITATION OR FOG.

+ - STATION NOT QUALITY CONTROLLED BY THE NATIONAL WEATHER SERVICE.
    USE DATA WITH CAUTION...ESPECIALLY DEWPOINT AND RELATIVE
    HUMIDITY OBSERVATIONS.

INZ001>003-010>013-019-020-031400-
NORTHWEST INDIANA

CITY           SKY/WX    TMP DP  RH WIND       PRES   REMARKS
GARY /AIRPORT/ CLOUDY    64  57  77 E5        29.99R
RENSSELAER +   CLOUDY    63  57  82 NE8       29.97R

$$

LMZ046-743>745-031400-
SOUTHERN LAKE MICHIGAN

STATION/POSITION TIME  TEMP    WIND        PRES    WAVE
                       AIR SEA DIR/SP/G            HT
                 (UTC) (F)     (DEG/KT/KT) (MB)    (FT)
BURNS HARBOR     1200   65     120/ 11/ 14 1015.6R
MICHIGAN CITY    1200   61     100/  4/  5   N/A
5NW MICH CITY    1200   62 63   90/  4/  6   N/A     1

$$

INZ004-005-014>016-021>024-031400-
NORTH CENTRAL INDIANA

CITY           SKY/WX    TMP DP  RH WIND       PRES   REMARKS
ELKHART        SUNNY     63  57  82 E5        30.00R
GOSHEN         MOSUNNY   63  57  81 E8        29.99R
SOUTH BEND     MOSUNNY   65  57  75 E6        30.00R

$$

INZ006>009-017-018-025>027-031400-
NORTHEAST INDIANA

CITY           SKY/WX    TMP DP  RH WIND       PRES   REMARKS
ANGOLA *+        N/A     61  54  77 E5        30.00R
FORT WAYNE     PTSUNNY   63  57  81 E9        29.99R

$$

INZ028-029-035-036-043>045-051>053-031400-
WEST CENTRAL INDIANA

CITY           SKY/WX    TMP DP  RH WIND       PRES   REMARKS
CRAWFORDSVL +  CLOUDY    63  55  74 NE7       29.93R
GREENCASTLE +  CLOUDY    64  59  82 NE6       29.92S
LAFAYETTE      CLOUDY    64  56  75 NE7       29.94S
TERRE HAUTE    CLOUDY    69  63  81 NE8       29.90R

$$

INZ030>032-037>040-046>048-054>057-064-065-031400-
CENTRAL INDIANA

CITY           SKY/WX    TMP DP  RH WIND       PRES   REMARKS
INDIANAPOLIS   LGT RAIN  64  59  83 NE12      29.90S
-EAGLE CREEK   CLOUDY    63  60  90 E7        29.91S
KOKOMO *+      CLOUDY    63  54  72 E8        29.95S
MT COMFORT *+  CLOUDY    64 N/A N/A NE7       29.93S
SHELBYVILLE    CLOUDY    65  60  84 NE8       29.90S

$$

INZ033-034-041-042-049-050-058-059-031400-
EAST CENTRAL INDIANA

CITY           SKY/WX    TMP DP  RH WIND       PRES   REMARKS
MUNCIE         CLOUDY    62  56  80 NE8       29.95R

$$

INZ060-061-067>069-081>083-085>088-031400-
SOUTHWEST INDIANA

CITY           SKY/WX    TMP DP  RH WIND       PRES   REMARKS
EVANSVILLE     CLOUDY    71  69  93 N5        29.87R FOG
HUNTINGBURG *+ CLOUDY    70  68  94 NE3       29.86S

$$

INZ062-063-066-070>080-084-089>092-031400-
SOUTH CENTRAL AND SOUTHEAST INDIANA

CITY           SKY/WX    TMP DP  RH WIND       PRES   REMARKS
BLOOMINGTON    CLOUDY    68  63  84 NE8       29.89S
MADISON *+     CLOUDY    68  64  88 E7        29.89S

$$




USA.gov is the U.S. government's official web portal to all federal, state and local government web resources and services.